Temperature
16 17 17 17 14 12 14 14 14 14 14 15 15 15 14 13 14 14 14 14 14 14 14 14 14 14 14 14 14 14 14 14 14 14 14 14 14 14 14 14 14 14 14 14 14 14 14 14 14
16 17 17 16 12 13 14 14 14 14 15 15 14 14 14 13 14 14 14 14 14 14 13 13 14 14 14 14 14 14 14 14 14 14 14 14 14 14 14 14 14 14 14 14 14 14 14 14 14
16 16 17 12 12 13 14 14 14 14 15 14 13 13 13 13 13 14 14 13 13 13 13 13 14 14 14 14 14 14 14 14 14 14 13 13 13 13 14 14 14 14 14 14 14 14 14 14 14
16 16 15 12 13 13 14 14 13 13 14 14 13 12 13 13 13 13 13 13 13 13 13 13 13 13 13 13 13 13 13 13 13 13 13 13 13 13 13 14 14 14 14 14 14 14 13 13 13
16 16 12 12 13 13 12 13 14 13 13 13 13 12 12 12 13 13 13 13 13 13 13 13 13 13 13 13 13 13 13 13 13 13 13 13 13 13 13 13 13 14 13 13 13 13 13 13 13
15 12 11 12 13 13 12 13 14 13 13 13 13 12 12 12 13 13 13 13 13 13 13 13 13 13 13 13 13 13 13 13 13 13 13 13 13 13 13 13 13 13 13 13 13 13 13 13 13
14 10 11 12 12 13 13 13 13 12 12 13 13 12 12 12 12 12 12 12 12 13 13 13 13 13 13 13 13 13 13 13 13 13 13 12 13 13 13 13 13 13 13 13 13 13 13 13 13
14 10 11 11 12 13 13 13 13 13 13 13 13 12 12 12 12 12 12 12 12 12 12 12 12 12 12 12 12 12 12 12 12 12 12 12 12 12 13 13 13 13 13 13 12 12 13 13 12
14 10 10 11 11 12 12 12 13 13 13 12 12 13 12 12 12 12 11 11 11 12 12 12 12 12 12 12 12 12 12 12 12 12 12 12 12 12 12 12 12 12 12 12 12 12 12 12 12
12 10 11 11 11 12 12 12 12 12 11 11 12 12 12 12 12 11 11 11 11 11 11 12 12 12 12 12 12 12 12 12 12 12 12 12 12 12 12 12 12 12 12 12 12 12 12 12 12
11 10 11 11 12 12 12 12 12 12 11 12 12 12 12 11 11 11 11 11 11 11 11 11 11 11 11 11 11 11 11 11 11 11 11 11 11 12 11 11 11 11 11 11 11 11 11 11 11
10 10 11 11 12 12 11 11 11 11 12 13 13 12 12 11 11 11 11 11 11 11 11 11 11 11 11 11 11 11 11 11 11 11 11 11 11 11 11 11 11 11 11 11 11 11 11 11 11
10 10 10 11 11 11 11 11 11 11 12 12 12 12 11 11 11 11 11 11 11 11 11 11 11 11 11 11 11 11 11 11 11 11 11 11 11 11 11 11 11 11 10 10 10 10 11 10 10
9 9 10 10 11 11 10 10 10 11 12 11 11 11 11 11 11 11 11 11 11 11 11 10 10 10 10 10 10 10 10 11 10 10 10 10 10 10 10 10 10 10 10 10 10 10 10 10 10
10 9 9 9 10 10 10 9 9 11 11 11 11 11 11 11 11 11 11 11 11 11 10 10 10 10 10 10 10 10 10 10 10 10 10 10 10 10 10 10 10 10 10 9 9 9 9 9 9
9 8 8 9 9 9 10 9 9 10 10 10 10 10 10 10 10 10 10 10 10 10 10 10 10 10 10 9 9 9 9 9 9 9 9 9 9 9 9 9 9 9 9 9 9 9 9 9 9
8 7 8 8 8 8 8 8 8 9 9 9 9 10 10 10 10 10 10 10 10 10 10 10 9 9 9 9 9 9 9 9 9 9 9 9 9 9 8 8 8 8 8 8 8 8 8 8 8
7 7 7 7 8 7 7 7 7 8 8 8 8 9 9 9 9 9 9 9 9 9 9 9 9 9 9 8 8 8 8 8 8 8 8 8 8 8 8 8 8 8 8 8 8 8 8 7 7
7 7 7 7 7 7 7 7 7 7 7 7 7 8 8 9 9 9 9 9 9 9 9 9 9 8 8 8 8 8 8 8 8 8 8 8 8 7 7 7 7 7 7 7 7 7 7 7 7
7 7 6 7 7 7 6 6 6 6 6 7 7 8 8 8 8 8 8 8 8 8 8 8 8 8 8 8 8 8 8 8 8 8 7 7 7 7 7 7 7 7 7 7 7 7 7 6 6
6 6 6 6 6 6 6 6 6 6 6 7 7 8 8 8 8 8 8 8 8 8 8 8 8 8 8 8 7 7 7 7 7 7 7 7 7 6 6 6 6 6 6 6 6 6 6 6 6
6 6 6 6 6 5 5 5 6 5 5 5 6 7 7 8 8 8 8 8 8 8 8 8 8 7 7 7 7 7 7 7 7 7 7 7 6 6 6 6 6 6 6 6 6 6 5 5 5
6 5 5 5 5 4 4 4 5 5 5 5 5 6 7 7 8 8 8 8 8 8 7 7 7 7 7 7 7 7 7 7 7 6 6 6 6 6 6 5 5 5 5 5 5 5 5 5 5
4 4 4 3 3 4 4 4 5 4 5 5 5 6 6 7 7 7 7 7 7 7 7 7 7 7 6 6 6 6 6 6 6 6 6 6 6 5 5 5 5 5 5 5 5 5 4 4 4
5 4 4 4 3 3 3 3 4 4 4 4 4 5 6 6 7 7 7 7 7 7 7 6 6 6 6 6 6 6 6 6 5 5 5 5 5 5 5 5 5 4 4 4 4 4 4 4 4
4 4 4 4 3 3 3 3 4 4 4 4 5 5 5 6 6 6 7 7 7 7 6 6 6 6 6 6 5 5 5 5 5 5 5 5 5 5 5 4 4 4 4 4 4 4 4 3 3
3 3 3 2 1 2 2 2 3 4 3 3 4 4 4 5 5 6 6 6 6 6 6 5 5 5 5 5 5 5 5 5 5 4 4 4 4 4 4 4 4 4 3 3 3 3 3 3 3
3 2 2 2 3 3 3 3 3 4 3 2 2 3 4 4 5 5 5 5 5 5 5 5 5 5 5 4 4 4 4 4 4 4 4 4 4 4 4 4 3 3 3 3 3 3 3 2 2
2 2 2 1 2 3 3 4 3 3 3 2 2 3 4 4 4 5 5 5 5 5 5 4 4 4 4 4 4 4 4 4 4 4 4 4 4 3 3 3 3 3 3 3 2 2 2 2 2
2 2 1 2 1 1 1 3 4 2 2 2 2 3 3 4 4 4 4 4 4 4 4 4 4 4 4 4 3 3 3 3 3 4 4 3 3 3 3 3 3 2 2 2 2 2 2 2 2
Wind_Speed
7 4 3 4 5 5 1 3 2 1 1 0 1 3 5 4 3 3 0 2 4 4 5 7 7 8 8 9 9 9 9 9 9 9 9 9 9 9 9 9 10 10 10 9 10 10 10 11 11
3 2 5 5 5 2 4 3 3 3 3 3 4 4 4 2 1 3 2 1 5 6 6 6 8 8 8 9 9 9 9 9 9 9 9 9 9 9 9 9 9 9 9 9 9 10 10 10 10
1 4 5 5 4 6 4 3 4 1 1 3 3 3 2 1 1 3 1 3 5 6 6 7 8 8 8 8 9 9 9 9 9 9 9 9 9 8 8 9 9 9 9 9 9 9 10 10 10
3 5 5 4 3 4 3 2 2 2 2 3 4 3 2 2 1 1 3 6 6 5 6 7 8 8 8 8 9 8 8 8 8 9 9 9 8 8 9 9 9 9 9 9 9 9 9 9 9
4 4 4 1 3 2 2 2 2 2 2 2 4 4 1 3 2 4 5 6 6 4 6 7 8 8 8 8 8 8 8 8 8 8 8 8 8 8 8 8 8 8 8 9 8 8 8 8 8
4 4 4 3 4 2 2 1 2 2 2 2 4 4 1 1 3 4 5 5 5 5 5 6 7 8 8 8 8 8 8 8 8 8 8 7 7 7 7 7 8 8 8 8 8 7 7 7 7
5 4 4 5 4 2 2 1 3 3 2 3 5 5 2 2 3 5 5 5 5 5 6 5 6 7 7 7 8 8 8 8 8 7 7 7 7 7 6 7 7 7 7 7 8 7 7 7 7
5 5 3 3 5 4 1 1 2 3 2 2 4 6 4 4 4 5 6 5 5 4 4 5 6 7 6 7 7 8 8 8 8 8 8 7 7 7 7 7 7 7 7 7 7 7 7 7 7
4 4 4 5 6 3 1 2 1 1 3 2 1 1 2 7 7 6 5 4 3 3 3 3 5 6 6 6 6 7 7 8 9 8 8 7 6 6 6 7 7 7 6 6 6 6 7 7 7
4 4 5 3 4 3 1 2 2 2 2 1 1 2 5 7 8 8 7 6 4 3 2 2 3 4 5 5 5 6 6 7 7 7 7 6 6 6 6 6 6 6 6 6 6 6 6 7 7
3 4 2 1 2 2 2 1 1 5 3 5 5 6 7 6 7 7 7 6 6 4 3 2 2 3 4 3 4 4 5 5 5 5 5 5 5 5 5 5 5 6 6 6 6 6 5 5 6
2 1 1 1 0 1 2 2 1 3 5 3 5 8 9 8 8 8 8 6 5 4 3 2 2 3 3 4 3 4 3 3 3 3 4 5 4 4 4 4 4 4 5 5 5 5 5 5 5
2 1 0 0 1 1 1 1 2 3 3 2 4 7 9 8 7 5 5 5 5 4 3 2 2 2 3 3 2 3 2 2 2 2 3 3 3 2 3 3 3 3 4 4 4 4 4 4 4
2 0 1 1 1 0 2 2 1 4 2 4 5 6 7 7 7 5 5 5 6 5 4 3 3 3 3 2 2 2 2 2 2 2 2 2 2 2 2 2 2 3 2 2 2 2 2 3 3
2 2 3 1 1 1 1 3 4 4 3 4 4 5 5 4 4 6 6 6 6 5 4 4 4 3 3 2 2 2 2 2 2 1 1 1 2 2 2 1 1 2 2 2 3 3 3 2 3
3 2 1 3 0 1 3 7 4 3 5 5 5 5 5 4 4 4 4 4 4 4 4 4 4 3 3 3 2 2 2 2 2 1 1 1 1 1 2 1 1 1 2 2 2 2 2 2 2
2 2 4 4 0 1 3 7 5 2 4 6 5 5 5 4 4 3 3 3 4 4 4 4 4 4 4 3 3 2 2 2 1 1 1 1 1 1 2 1 1 1 2 2 1 1 1 1 2
5 4 4 5 2 1 4 7 6 3 5 6 6 5 5 6 6 4 3 2 2 3 3 3 3 3 3 3 2 2 1 1 1 1 1 1 1 1 2 1 1 1 1 1 1 0 1 0 1
4 4 4 5 2 2 7 9 9 6 4 6 6 6 7 7 4 2 2 2 2 2 2 2 3 3 3 2 2 2 2 1 1 1 1 2 1 1 2 1 1 2 1 1 1 0 1 1 1
3 3 3 3 1 2 5 9 8 6 7 7 7 8 7 5 3 3 2 2 2 3 3 3 3 4 3 3 3 2 2 2 2 1 1 2 2 2 2 2 2 2 1 0 1 1 0 1 1
4 5 4 3 3 2 4 8 5 4 4 4 5 6 6 7 7 5 4 4 3 3 4 3 4 4 4 3 2 2 1 0 1 1 2 2 3 3 2 3 3 2 2 2 2 2 2 2 1
5 3 3 2 0 3 1 6 7 5 5 6 6 5 6 5 5 5 4 4 4 4 3 3 3 3 3 3 4 4 4 4 4 3 2 2 3 3 3 3 3 3 3 3 2 2 2 3 2
3 2 2 1 2 2 2 4 9 2 5 7 6 6 5 4 4 4 4 4 4 3 2 2 2 3 3 4 5 5 4 4 2 2 2 2 2 2 3 3 3 3 3 3 3 2 2 3 3
4 4 4 4 3 4 6 6 8 5 6 5 5 6 5 4 3 3 3 2 2 2 1 2 2 3 3 4 4 5 5 4 3 3 3 2 2 2 2 3 3 3 3 3 3 4 3 3 3
4 5 2 2 1 7 3 5 9 6 5 5 6 6 4 3 3 3 3 2 2 3 3 3 4 4 4 4 4 5 5 5 6 5 4 3 3 3 4 3 3 3 3 4 4 4 4 4 4
4 6 6 5 5 5 2 7 7 4 3 3 3 2 1 1 2 2 3 3 4 4 4 4 4 4 4 4 4 4 4 4 4 5 4 4 4 4 4 4 3 3 4 4 3 3 4 4 5
5 4 4 4 1 3 6 6 8 2 2 2 2 2 2 2 3 3 4 3 4 4 4 4 5 5 4 5 4 4 4 4 5 4 4 4 4 4 4 4 4 3 4 4 4 4 4 4 5
4 6 4 4 3 4 5 5 5 4 4 3 2 2 3 3 3 3 4 4 4 3 3 3 4 5 5 5 5 4 4 5 5 4 4 4 4 4 4 4 4 4 4 4 4 4 4 4 4
4 3 3 4 3 4 4 6 4 5 5 4 4 3 3 4 4 4 4 3 3 3 2 3 3 3 3 4 4 4 4 4 4 4 5 4 4 4 5 5 5 5 4 5 5 5 4 5 4
4 5 6 5 4 4 3 7 2 3 3 3 3 3 3 4 3 3 3 3 3 3 3 3 3 3 4 4 3 4 4 3 4 4 4 4 4 4 5 4 5 5 5 5 6 6 5 5 6
Wind_Direction
342 11 69 58 59 57 211 242 210 228 178 126 113 120 133 133 144 162 175 103 106 113 124 128 125 120 114 108 100 93 91 92 90 87 84 81 80 79 76 73 68 64 63 67 71 71 69 69 69
345 34 55 62 97 130 255 240 202 216 174 122 71 79 90 93 79 110 99 96 109 111 117 123 126 125 117 110 102 96 92 89 88 86 82 80 78 76 75 73 70 65 62 64 71 69 69 69 68
34 51 82 83 128 179 207 211 200 215 99 110 87 63 98 117 112 141 133 117 97 94 106 119 121 121 116 109 105 101 95 90 90 87 82 79 77 74 74 71 69 66 64 65 68 71 72 71 69
73 51 59 89 182 210 205 223 177 130 60 64 111 86 59 34 143 153 115 109 97 85 98 114 114 114 110 104 101 101 96 93 91 90 83 79 76 76 74 71 68 66 66 67 68 72 73 73 71
59 82 78 98 221 243 247 241 155 132 117 84 117 118 77 1 54 98 109 108 109 94 99 113 112 111 110 106 101 98 93 90 87 87 83 79 77 75 75 73 71 72 70 68 68 70 74 75 73
62 76 114 194 220 252 260 241 133 115 119 118 126 126 141 50 89 117 114 106 98 98 99 111 115 111 108 106 102 97 91 86 82 81 81 77 76 76 77 76 72 73 72 67 65 69 71 75 76
109 110 164 182 191 229 230 155 146 144 146 181 153 133 162 131 121 123 110 97 88 86 87 86 100 105 105 101 95 94 91 86 80 76 75 73 71 71 70 73 73 72 72 69 65 68 70 69 74
120 111 136 180 186 219 219 129 146 152 173 132 138 152 190 179 144 119 105 96 91 77 76 77 83 89 94 102 95 88 83 80 77 73 70 69 66 65 62 66 71 69 67 66 65 65 65 64 69
95 97 187 201 189 207 169 121 37 77 112 98 110 171 162 137 136 126 117 106 106 92 68 74 82 82 87 98 96 89 82 75 75 70 67 66 64 62 59 62 64 62 63 60 61 63 61 59 61
91 163 209 202 184 174 163 150 157 102 92 109 57 62 110 134 146 150 152 160 164 158 129 88 100 97 92 96 93 86 82 77 74 72 68 69 70 67 65 62 60 57 58 57 54 53 54 57 56
125 177 198 213 181 154 150 154 157 142 205 208 192 166 148 152 159 166 172 176 180 178 169 136 121 121 110 100 98 90 86 78 73 69 70 72 69 66 64 60 54 53 53 55 50 48 51 63 62
126 205 174 236 137 128 162 151 155 193 222 204 175 158 160 169 179 186 183 180 175 173 180 164 133 126 119 116 113 103 93 85 75 67 71 78 73 64 61 61 53 53 55 56 53 54 48 58 61
153 209 20 18 58 145 129 186 208 249 260 130 137 151 170 179 188 197 185 179 176 181 185 183 156 132 124 118 121 110 110 105 92 78 68 81 90 78 64 62 61 57 59 62 55 52 49 49 53
174 142 339 332 333 261 186 259 215 248 178 147 156 176 189 192 189 190 191 189 188 189 189 182 174 147 126 124 134 130 128 117 105 91 65 76 96 99 85 75 62 55 61 71 77 59 56 50 52
93 49 354 311 261 253 116 291 230 230 157 165 181 194 204 212 198 200 201 196 195 192 186 184 181 156 142 141 147 137 133 125 121 119 104 90 95 102 100 94 74 47 53 75 80 65 63 54 40
80 81 275 289 12 236 154 253 255 201 169 202 209 210 214 221 215 216 206 199 195 187 187 190 186 177 174 165 152 142 133 130 133 133 129 120 111 113 109 103 72 32 70 85 96 74 43 29 16
72 198 233 282 274 142 187 248 258 218 192 217 218 217 222 228 237 233 224 211 196 193 192 191 188 185 186 172 155 142 133 132 140 134 133 150 143 134 127 128 111 95 87 89 97 54 37 16 0
205 205 228 245 279 215 237 257 270 259 214 222 224 228 230 229 231 229 227 223 206 192 189 194 193 189 178 163 147 126 114 104 118 148 170 166 151 139 131 128 115 111 108 76 84 81 29 4 333
163 177 228 252 268 246 250 264 269 266 241 232 229 228 229 232 236 215 200 187 179 174 177 190 188 192 175 174 179 183 205 215 224 194 187 177 155 155 141 151 143 137 165 205 173 124 54 354 347
165 190 235 277 302 257 275 274 265 244 235 231 226 224 222 227 227 218 201 178 184 199 203 198 199 196 197 196 190 182 180 206 216 215 195 202 189 183 178 174 187 175 175 184 192 168 174 329 6
210 201 212 241 336 358 326 296 262 255 240 244 234 224 219 214 216 218 210 208 201 209 217 214 210 205 208 192 160 132 108 73 220 238 235 223 208 199 194 196 190 185 187 205 213 197 188 219 266
230 213 188 202 33 292 33 287 276 258 267 246 239 234 230 225 218 217 213 216 218 223 222 217 211 210 213 192 182 184 200 221 229 226 227 230 211 208 208 205 201 195 192 203 217 214 210 193 217
186 103 127 157 175 300 254 236 280 272 253 253 240 232 234 232 220 217 219 219 224 225 221 223 207 212 215 205 199 201 219 227 226 217 219 234 231 218 213 208 201 203 200 203 207 215 216 208 209
122 76 62 55 79 264 225 202 276 239 229 248 243 237 236 242 242 240 237 225 229 218 217 220 214 226 223 213 209 210 220 226 223 231 227 235 244 248 229 209 203 208 209 210 212 213 213 216 215
107 104 39 339 285 249 195 211 253 255 232 227 237 238 234 230 229 241 243 235 233 226 223 219 214 229 229 220 222 223 221 216 217 224 223 226 238 248 242 226 216 216 216 211 207 212 224 218 213
175 152 171 207 228 272 228 233 255 268 264 255 247 239 277 297 279 264 258 253 246 238 229 223 225 234 228 224 232 232 224 219 225 222 218 222 231 236 229 220 216 217 214 214 209 218 228 222 221
149 181 158 137 161 263 258 274 295 270 298 327 332 358 315 299 305 307 304 291 268 251 241 232 232 241 237 233 235 235 226 222 226 226 223 231 235 232 216 213 217 219 215 210 210 230 233 227 225
148 146 119 143 183 251 277 264 256 266 263 287 294 285 289 299 301 299 300 295 292 280 271 258 247 242 243 238 235 239 232 230 229 223 226 231 232 227 222 222 222 224 222 215 217 233 230 225 232
128 143 148 149 177 188 259 269 229 222 217 226 245 260 282 296 299 299 302 299 299 308 302 282 267 261 257 250 246 244 244 237 227 225 230 229 228 223 221 224 224 226 230 224 223 231 227 227 237
175 177 157 174 221 204 222 268 269 219 231 230 257 282 296 296 304 312 319 325 326 319 316 305 288 271 260 251 249 251 251 243 233 233 234 226 227 230 229 229 228 230 233 225 221 228 227 225 230
Height
1501 1502 1504 1506 1510 1523 1525 1520 1518 1517 1517 1516 1516 1517 1519 1521 1525 1530 1526 1525 1526 1528 1530 1531 1532 1533 1534 1534 1535 1535 1536 1536 1536 1536 1536 1536 1536 1536 1536 1536 1536 1536 1535 1535 1535 1535 1534 1534 1534
1501 1503 1505 1506 1517 1529 1526 1518 1517 1515 1515 1516 1516 1517 1519 1520 1522 1523 1523 1525 1527 1528 1529 1531 1532 1533 1534 1535 1535 1536 1536 1536 1536 1537 1537 1537 1537 1537 1537 1537 1537 1537 1536 1536 1535 1535 1535 1534 1534
1501 1503 1505 1509 1520 1525 1520 1515 1515 1514 1515 1515 1517 1518 1520 1521 1522 1522 1524 1525 1527 1528 1530 1531 1532 1533 1534 1535 1535 1536 1536 1536 1537 1537 1537 1537 1537 1537 1537 1537 1537 1537 1536 1536 1536 1535 1535 1535 1535
1502 1504 1506 1514 1518 1517 1515 1513 1513 1514 1515 1515 1516 1519 1520 1522 1522 1523 1524 1525 1527 1528 1530 1531 1532 1533 1534 1535 1535 1536 1536 1537 1537 1537 1537 1537 1537 1537 1537 1537 1537 1537 1537 1537 1536 1536 1535 1535 1535
1502 1503 1512 1519 1517 1515 1513 1512 1512 1513 1515 1516 1517 1519 1520 1522 1522 1523 1524 1526 1527 1528 1530 1531 1532 1533 1534 1534 1535 1535 1536 1536 1537 1537 1537 1537 1537 1537 1537 1537 1537 1537 1537 1537 1536 1536 1536 1536 1535
1502 1504 1517 1521 1516 1514 1512 1512 1512 1513 1515 1516 1517 1519 1520 1521 1522 1523 1524 1526 1527 1528 1529 1530 1532 1533 1533 1534 1535 1535 1536 1536 1536 1537 1537 1537 1537 1537 1537 1537 1537 1537 1537 1537 1536 1536 1536 1536 1536
1502 1508 1515 1516 1516 1514 1512 1511 1512 1513 1514 1516 1516 1518 1519 1521 1522 1523 1525 1526 1527 1528 1529 1530 1531 1532 1533 1534 1534 1535 1535 1536 1536 1536 1537 1537 1537 1537 1537 1537 1537 1537 1537 1537 1536 1536 1536 1536 1535
1501 1508 1514 1516 1515 1513 1511 1511 1511 1512 1514 1515 1516 1517 1518 1519 1521 1522 1524 1526 1527 1528 1529 1530 1531 1531 1532 1533 1534 1534 1535 1535 1535 1536 1536 1536 1536 1536 1536 1537 1536 1536 1536 1536 1536 1536 1536 1536 1535
1501 1511 1515 1513 1512 1511 1510 1510 1511 1512 1513 1514 1515 1516 1517 1518 1519 1521 1523 1524 1526 1527 1528 1529 1530 1531 1532 1532 1533 1534 1534 1534 1535 1535 1535 1535 1536 1536 1536 1536 1536 1536 1535 1535 1535 1535 1535 1535 1535
1502 1511 1510 1508 1508 1508 1509 1510 1511 1512 1513 1514 1514 1515 1516 1517 1518 1519 1520 1522 1523 1525 1526 1528 1529 1530 1531 1531 1532 1533 1533 1533 1534 1534 1534 1535 1535 1535 1535 1535 1535 1535 1535 1535 1534 1534 1534 1534 1534
1502 1507 1506 1506 1506 1507 1508 1509 1510 1511 1512 1512 1512 1513 1514 1516 1517 1518 1519 1520 1522 1523 1525 1526 1527 1529 1530 1530 1531 1531 1532 1532 1533 1533 1533 1533 1534 1534 1534 1534 1534 1534 1534 1534 1533 1533 1533 1533 1533
1504 1505 1505 1506 1506 1507 1508 1508 1509 1509 1510 1510 1511 1512 1513 1514 1515 1516 1517 1519 1520 1522 1523 1525 1526 1527 1528 1529 1529 1530 1530 1531 1531 1532 1532 1532 1532 1533 1533 1533 1533 1533 1533 1532 1532 1532 1532 1532 1532
1504 1505 1505 1505 1506 1506 1507 1508 1508 1508 1508 1509 1510 1511 1511 1513 1514 1515 1516 1518 1519 1520 1522 1523 1524 1525 1526 1527 1528 1528 1529 1529 1530 1530 1531 1531 1531 1531 1531 1531 1532 1531 1531 1531 1531 1531 1530 1530 1530
1504 1504 1505 1505 1505 1506 1506 1507 1507 1505 1507 1507 1508 1509 1510 1511 1513 1514 1514 1516 1517 1519 1520 1522 1523 1524 1525 1526 1526 1527 1527 1528 1528 1529 1529 1529 1530 1530 1530 1530 1530 1530 1530 1530 1529 1529 1529 1529 1529
1504 1505 1506 1505 1505 1505 1506 1507 1505 1503 1505 1506 1507 1508 1509 1510 1511 1512 1513 1514 1516 1517 1519 1519 1521 1522 1523 1524 1525 1525 1525 1526 1526 1527 1527 1527 1528 1528 1528 1528 1528 1528 1528 1528 1528 1527 1527 1527 1527
1505 1508 1510 1506 1505 1505 1509 1508 1503 1502 1503 1504 1505 1506 1507 1508 1509 1510 1511 1512 1514 1515 1516 1517 1518 1519 1520 1522 1522 1523 1524 1524 1524 1525 1525 1525 1526 1526 1526 1526 1526 1526 1526 1526 1525 1525 1525 1525 1525
1508 1512 1510 1508 1505 1506 1507 1506 1501 1501 1502 1502 1503 1504 1505 1506 1507 1508 1509 1510 1511 1513 1514 1515 1516 1517 1518 1519 1520 1521 1521 1522 1522 1522 1523 1523 1523 1524 1524 1524 1524 1524 1524 1524 1523 1523 1523 1523 1523
1510 1511 1511 1510 1506 1507 1507 1504 1500 1500 1500 1500 1501 1502 1503 1503 1504 1505 1507 1508 1509 1510 1511 1512 1513 1514 1515 1516 1517 1518 1519 1519 1519 1520 1520 1521 1521 1521 1521 1521 1521 1521 1521 1521 1521 1521 1521 1521 1521
1505 1509 1510 1509 1506 1507 1506 1503 1499 1498 1499 1498 1498 1499 1499 1500 1502 1503 1505 1505 1506 1507 1508 1509 1510 1511 1512 1513 1513 1514 1515 1516 1516 1517 1517 1517 1518 1518 1518 1518 1518 1518 1518 1518 1518 1518 1518 1518 1519
1505 1508 1509 1507 1506 1506 1506 1502 1497 1496 1495 1494 1495 1495 1496 1497 1499 1500 1502 1503 1504 1505 1506 1507 1507 1508 1509 1510 1510 1511 1512 1513 1513 1514 1514 1514 1515 1515 1515 1515 1515 1515 1515 1515 1515 1515 1515 1516 1516
1505 1507 1508 1508 1507 1507 1507 1500 1495 1492 1491 1492 1492 1492 1493 1494 1495 1497 1498 1500 1501 1502 1503 1504 1505 1505 1506 1507 1507 1508 1509 1509 1510 1510 1510 1511 1511 1511 1511 1511 1512 1512 1512 1512 1512 1512 1512 1513 1513
1505 1504 1505 1507 1510 1514 1511 1511 1495 1492 1491 1489 1489 1489 1489 1491 1492 1494 1495 1496 1498 1499 1500 1501 1502 1502 1503 1504 1504 1504 1504 1505 1505 1506 1506 1507 1507 1507 1508 1508 1508 1508 1508 1508 1508 1508 1509 1509 1510
1503 1504 1506 1509 1512 1517 1515 1516 1497 1492 1490 1487 1486 1486 1487 1488 1489 1490 1492 1493 1495 1496 1497 1498 1498 1499 1500 1500 1501 1501 1501 1501 1502 1502 1503 1503 1503 1504 1504 1504 1504 1504 1504 1504 1504 1505 1505 1505 1506
1502 1506 1510 1515 1517 1519 1512 1515 1499 1493 1486 1484 1483 1483 1484 1485 1486 1488 1489 1491 1492 1493 1494 1494 1495 1495 1496 1497 1497 1497 1497 1497 1498 1498 1498 1499 1499 1500 1500 1500 1500 1500 1500 1500 1500 1501 1501 1501 1502
1502 1509 1518 1518 1523 1516 1511 1510 1497 1484 1482 1481 1480 1480 1481 1482 1484 1485 1486 1487 1488 1489 1489 1490 1491 1491 1492 1492 1493 1493 1493 1493 1494 1494 1494 1495 1495 1495 1495 1496 1496 1496 1496 1496 1496 1496 1496 1497 1497
1502 1505 1514 1516 1518 1513 1511 1507 1490 1481 1479 1479 1479 1479 1479 1481 1482 1483 1483 1484 1485 1485 1486 1486 1487 1487 1488 1488 1488 1489 1489 1489 1490 1490 1490 1491 1491 1491 1491 1491 1491 1492 1492 1492 1492 1492 1492 1493 1493
1502 1506 1507 1517 1522 1520 1509 1501 1487 1479 1478 1478 1477 1477 1478 1479 1480 1480 1481 1482 1482 1482 1483 1483 1483 1483 1484 1484 1484 1485 1485 1485 1486 1486 1487 1487 1487 1487 1487 1487 1487 1487 1487 1488 1488 1487 1488 1488 1489
1498 1503 1510 1514 1514 1510 1502 1500 1489 1480 1479 1478 1478 1477 1477 1478 1478 1478 1479 1479 1479 1479 1480 1480 1480 1479 1480 1480 1481 1481 1481 1481 1482 1482 1482 1482 1483 1483 1483 1483 1483 1483 1483 1483 1483 1483 1483 1484 1484
1501 1504 1505 1510 1512 1511 1508 1493 1480 1478 1476 1477 1476 1476 1476 1476 1476 1476 1476 1476 1476 1476 1477 1476 1476 1476 1476 1476 1476 1476 1477 1477 1477 1477 1478 1478 1478 1478 1478 1478 1478 1478 1478 1478 1478 1478 1479 1479 1479
1496 1498 1502 1506 1510 1511 1508 1492 1475 1475 1474 1474 1475 1475 1475 1475 1475 1475 1474 1473 1473 1473 1473 1473 1473 1472 1472 1472 1472 1472 1472 1472 1472 1473 1473 1474 1473 1473 1473 1473 1473 1473 1474 1474 1474 1474 1474 1475 1475